F1DKL-13 Weather Reports


time (UTC)temp
F
wind
direction
speed
knots
gust
knots
rain 1hr
in
rain 24hr
in
rain mn
in
humidity
%
barometer
mb
20260507160006 61 0 0.0 0.0 0.00 0.00 0.00 34 1018.3
20260507155506 61 0 0.0 0.0 0.00 0.00 0.00 35 1018.3
20260507155006 61 0 0.0 0.0 0.00 0.00 0.00 35 1018.3
20260507154506 61 0 0.0 0.0 0.00 0.00 0.00 36 1018.3
20260507154008 61 0 0.0 0.0 0.00 0.00 0.00 37 1018.3
20260507153506 61 0 0.0 0.0 0.00 0.00 0.00 36 1018.3
20260507153006 61 0 0.0 0.0 0.00 0.00 0.00 35 1018.3
20260507152926 61 0 0.0 0.0 0.00 0.00 0.00 35 1018.3
20260507152506 61 0 0.0 0.0 0.00 0.00 0.00 35 1018.3
20260507152006 62 0 0.0 0.0 0.00 0.00 0.00 34 1018.3
20260507151506 63 0 0.0 0.0 0.00 0.00 0.00 30 1018.3
20260507151006 64 0 0.0 0.0 0.00 0.00 0.00 27 1018.3
20260507150506 65 0 0.0 0.0 0.00 0.00 0.00 24 1018.3
20260507150006 65 0 0.0 0.0 0.00 0.00 0.00 20 1018.3
20260507145506 65 0 0.0 0.0 0.00 0.00 0.00 18 1018.3
20260507145006 66 0 0.0 0.0 0.00 0.00 0.00 15 1018.3
20260507144506 66 0 0.0 0.0 0.00 0.00 0.00 10 1018.3
20260507144006 66 0 0.0 0.0 0.00 0.00 0.00 4 1018.3
20260507143506 67 0 0.0 0.0 0.00 0.00 0.00 4 1018.3
20260507143006 67 0 0.0 0.0 0.00 0.00 0.00 4 1018.3
20260507142506 67 0 0.0 0.0 0.00 0.00 0.00 15 1018.3
20260507142006 67 0 0.0 0.0 0.00 0.00 0.00 4 1018.3
20260507141506 68 0 0.0 0.0 0.00 0.00 0.00 4 1018.3
20260507141007 67 0 0.0 0.0 0.00 0.00 0.00 4 1018.3
20260507140506 68 0 0.0 0.0 0.00 0.00 0.00 4 1018.3
20260507140006 69 0 0.0 0.0 0.00 0.00 0.00 4 1018.3
20260507135506 70 0 0.0 0.0 0.00 0.00 0.00 3 1018.3
20260507135006 71 0 0.0 0.0 0.00 0.00 0.00 3 1018.3
20260507134506 70 0 0.0 0.0 0.00 0.00 0.00 4 1018.3
20260507134006 67 0 0.0 0.0 0.00 0.00 0.00 4 1018.3
20260507133506 68 0 0.0 0.0 0.00 0.00 0.00 4 1018.3
20260507133006 69 0 0.0 0.0 0.00 0.00 0.00 4 1018.3
20260507132506 70 0 0.0 0.0 0.00 0.00 0.00 3 1018.3
20260507132006 70 0 0.0 0.0 0.00 0.00 0.00 3 1018.3
20260507131506 72 0 0.0 0.0 0.00 0.00 0.00 3 1018.3
20260507131006 73 0 0.0 0.0 0.00 0.00 0.00 2 1018.3
20260507130506 73 0 0.0 0.0 0.00 0.00 0.00 3 1018.3
20260507130008 73 0 0.0 0.0 0.00 0.00 0.00 3 1018.3
20260507130006 73 0 0.0 0.0 0.00 0.00 0.00 3 1018.3
20260507125506 73 0 0.0 0.0 0.00 0.00 0.00 3 1018.3
20260507125006 71 0 0.0 0.0 0.00 0.00 0.00 3 1018.3
20260507124506 74 0 0.0 0.0 0.00 0.00 0.00 2 1018.3
20260507124006 77 0 0.0 0.0 0.00 0.00 0.00 2 1019.3
20260507123506 76 0 0.0 0.0 0.00 0.00 0.00 2 1019.3
20260507123006 76 0 0.0 0.0 0.00 0.00 0.00 2 1019.3
20260507122506 76 0 0.0 0.0 0.00 0.00 0.00 2 1019.3
20260507122006 76 0 0.0 0.0 0.00 0.00 0.00 2 1019.3
20260507110506 72 0 0.0 0.0 0.00 0.04 0.00 3 1019.3
20260507110006 73 0 0.0 0.0 0.00 0.04 0.00 3 1019.3
20260507105506 74 0 0.0 0.0 0.00 0.04 0.00 2 1019.3
20260507105006 74 0 0.0 0.0 0.00 0.04 0.00 2 1019.3
20260507104506 74 0 0.0 0.0 0.00 0.04 0.00 2 1019.3
20260507104006 74 0 0.0 0.0 0.00 0.04 0.00 2 1019.3
20260507103506 74 0 0.0 0.0 0.00 0.04 0.00 2 1019.3
20260507103006 74 0 0.0 0.0 0.00 0.04 0.00 2 1019.3
20260507102506 74 0 0.0 0.0 0.00 0.04 0.00 2 1020.4
20260507102007 74 0 0.0 0.0 0.00 0.04 0.00 2 1020.4
20260507101507 74 0 0.0 0.0 0.00 0.04 0.00 8 1020.4
20260507101006 73 0 0.0 0.0 0.00 0.04 0.00 14 1020.4
20260507100506 73 0 0.0 0.0 0.00 0.04 0.00 6 1020.4
20260507100006 73 0 0.0 0.0 0.00 0.04 0.00 22 1020.4
20260507095506 73 0 0.0 0.0 0.00 0.08 0.00 19 1020.4
20260507095006 72 0 0.0 0.0 0.00 0.08 0.00 21 1020.4
20260507094506 71 0 0.0 0.0 0.00 0.08 0.00 22 1020.4
20260507094006 71 0 0.0 0.0 0.00 0.08 0.00 22 1020.4
20260507093506 71 0 0.0 0.0 0.00 0.08 0.00 22 1020.4
20260507093006 71 0 0.0 0.0 0.00 0.08 0.00 25 1020.4
20260507092506 70 0 0.0 0.0 0.00 0.08 0.00 23 1020.4
20260507092006 70 0 0.0 0.0 0.00 0.08 0.00 31 1020.4
20260507091506 69 0 0.0 0.0 0.00 0.08 0.00 28 1020.4
20260507091006 69 0 0.0 0.0 0.00 0.08 0.00 28 1020.4
20260507090506 69 0 0.0 0.0 0.00 0.08 0.00 32 1020.4
20260507090006 69 0 0.0 0.0 0.00 0.08 0.00 32 1020.4
20260507085506 69 0 0.0 0.0 0.00 0.08 0.00 33 1020.4
20260507085006 68 0 0.0 0.0 0.00 0.08 0.00 33 1020.4
20260507084506 68 0 0.0 0.0 0.00 0.08 0.00 33 1020.4
20260507084006 67 0 0.0 0.0 0.00 0.08 0.00 33 1020.4
20260507083506 67 0 0.0 0.0 0.00 0.08 0.00 34 1020.4
20260507083006 66 0 0.0 0.0 0.00 0.08 0.00 34 1020.4
20260507082506 67 0 0.0 0.0 0.00 0.08 0.00 34 1020.4
20260507082006 67 0 0.0 0.0 0.00 0.08 0.00 33 1020.4
20260507081506 68 0 0.0 0.0 0.00 0.12 0.00 39 1020.4
20260507081006 68 0 0.0 0.0 0.00 0.12 0.00 40 1020.4
20260507080506 67 0 0.0 0.0 0.00 0.12 0.00 44 1020.4
20260507080006 65 0 0.0 0.0 0.00 0.12 0.00 43 1020.4
20260507075506 64 0 0.0 0.0 0.00 0.12 0.00 44 1020.4
20260507075006 64 0 0.0 0.0 0.00 0.12 0.00 44 1020.4
20260507074505 63 0 0.0 0.0 0.00 0.12 0.00 45 1020.4
20260507074006 63 0 0.0 0.0 0.00 0.12 0.00 45 1020.4
20260507073505 62 0 0.0 0.0 0.00 0.12 0.00 48 1020.4
20260507073005 62 0 0.0 0.0 0.00 0.12 0.00 52 1020.4
20260507072505 62 0 0.0 0.0 0.00 0.12 0.00 55 1019.3
20260507072006 61 0 0.0 0.0 0.00 0.12 0.00 55 1019.3
20260507071505 60 0 0.0 0.0 0.00 0.12 0.00 57 1019.3
20260507071005 60 0 0.0 0.0 0.00 0.12 0.00 60 1020.4
20260507055505 46 0 0.0 0.0 0.00 0.16 0.00 98 1020.4
20260507055005 46 0 0.0 0.0 0.00 0.16 0.00 98 1020.4
20260507054505 45 0 0.0 0.0 0.00 0.16 0.00 98 1020.4
20260507054006 44 0 0.0 0.0 0.00 0.16 0.00 98 1020.4
20260507053506 43 0 0.0 0.0 0.00 0.16 0.00 98 1020.4
20260507053005 42 0 0.0 0.0 0.00 0.21 0.00 98 1020.4
20260507052505 40 0 0.0 0.0 0.00 0.21 0.00 87 1020.4
20260507052005 40 0 0.0 0.0 0.00 0.21 0.00 87 1020.4
20260507051505 40 0 0.0 0.0 0.00 0.21 0.00 87 1020.4
20260507051005 40 0 0.0 0.0 0.00 0.21 0.00 87 1020.4
20260507050505 40 0 0.0 0.0 0.00 0.21 0.00 87 1020.4
20260507050006 39 0 0.0 0.0 0.00 0.21 0.00 86 1020.4
20260507045505 39 0 0.0 0.0 0.00 0.21 0.00 85 1020.4
20260507045005 39 0 0.0 0.0 0.00 0.21 0.00 84 1020.4
20260507044505 39 0 0.0 0.0 0.00 0.21 0.00 84 1020.4
20260507044005 39 0 0.0 0.0 0.00 0.21 0.00 83 1020.4
20260507043505 39 0 0.0 0.0 0.00 0.21 0.00 83 1020.4
20260507043005 39 0 0.0 0.0 0.00 0.21 0.00 83 1020.4
20260507042505 39 0 0.0 0.0 0.00 0.21 0.00 83 1020.4
20260507042005 39 0 0.0 0.0 0.00 0.21 0.00 82 1020.4
20260507041505 39 0 0.0 0.0 0.00 0.21 0.00 82 1020.4
20260507041005 39 0 0.0 0.0 0.00 0.21 0.00 82 1020.4
20260507040505 39 0 0.0 0.0 0.00 0.21 0.00 82 1020.4
20260507040005 39 0 0.0 0.0 0.00 0.21 0.00 81 1020.4